Volver al catálogo

STARLINK-11137

ActivoComunicacionesVLEO
NORAD 60050·PAYLOAD·🇺🇸 United States

Lanzado Jun 8, 2024 desde Vandenberg Space Force Base

Loading…

Próximos Pases (próximas 24 horas)

TLE

ActualizadoSource: CelesTrak SupGP

Época: Sep 14, 2026, 21:33 UTC

1 60050C 24112N   26257.89840278  .00073437  00000+0  60483-3 0  2573
2 60050  53.1573  53.2428 0001070  71.4553 244.1309 15.69676602    16

Sigue STARLINK-11137 en tiempo real con AllMySat

Download on the App Store